Wetterstation Camping Dickerscheid
Wetterdaten: aktuell Samstag, 15.12.2018 13:51
Datum Zeit Temp. Innen Temp. Auen Feuchte I. Feuchte A. Luftdruck Regen Wind W-Richtung W-Richtung Taupunkt Windchill Windben
15.12.2018 13:51 21,7 C -2,9 C 27 % 81 % 1019,4 hPa 0,0 mm 9,1 km/h (2 Bft) S-SO 161 -5,7 C -6,5 C 14,5 km/h (3 Bft)
15.12.2018 12:51 21,2 C -2,9 C 29 % 81 % 1020,1 hPa 0,0 mm 4,8 km/h (1 Bft) SO 135 -5,7 C -4,8 C 8,0 km/h (2 Bft)
15.12.2018 11:55 20,9 C -3,1 C 30 % 81 % 1020,6 hPa 0,0 mm 11,3 km/h (2 Bft) S-SO 157 -5,9 C -7,4 C 17,7 km/h (3 Bft)
15.12.2018 10:59 20,9 C -3,4 C 29 % 82 % 1021,5 hPa 0,0 mm 14,5 km/h (3 Bft) SO 135 -6,0 C -8,5 C 22,5 km/h (4 Bft)
15.12.2018 10:03 20,9 C -3,7 C 28 % 83 % 1021,6 hPa 0,0 mm 12,9 km/h (3 Bft) SO 135 -6,2 C -8,5 C 19,3 km/h (3 Bft)
15.12.2018 09:07 20,9 C -3,8 C 28 % 83 % 1021,6 hPa 0,0 mm 11,3 km/h (2 Bft) SO 135 -6,3 C -8,2 C 16,1 km/h (3 Bft)
15.12.2018 08:11 20,9 C -3,7 C 29 % 82 % 1021,4 hPa 0,0 mm 9,7 km/h (2 Bft) SO 135 -6,3 C -7,6 C 16,1 km/h (3 Bft)
15.12.2018 07:15 20,9 C -3,8 C 29 % 82 % 1021,5 hPa 0,0 mm 1,6 km/h (1 Bft) S-SO 157 -6,4 C -3,8 C 4,8 km/h (1 Bft)
15.12.2018 06:19 20,9 C -3,9 C 29 % 82 % 1021,4 hPa 0,0 mm 6,4 km/h (2 Bft) SO 135 -6,5 C -6,7 C 11,3 km/h (2 Bft)
15.12.2018 05:23 21,1 C -3,9 C 29 % 82 % 1021,6 hPa 0,0 mm 4,8 km/h (1 Bft) SO 135 -6,5 C -5,9 C 8,0 km/h (2 Bft)
15.12.2018 04:27 21,1 C -3,8 C 29 % 81 % 1021,6 hPa 0,0 mm 4,8 km/h (1 Bft) S-SO 157 -6,6 C -5,8 C 8,0 km/h (2 Bft)
15.12.2018 03:31 21,1 C -3,6 C 29 % 81 % 1021,9 hPa 0,0 mm 4,8 km/h (1 Bft) S-SO 157 -6,4 C -5,6 C 6,4 km/h (2 Bft)
15.12.2018 02:35 21,2 C -3,6 C 30 % 81 % 1022,1 hPa 0,0 mm 4,8 km/h (1 Bft) S-SO 157 -6,4 C -5,6 C 6,4 km/h (2 Bft)
15.12.2018 01:39 21,2 C -3,4 C 30 % 81 % 1021,5 hPa 0,0 mm 8,0 km/h (2 Bft) SO 135 -6,2 C -6,7 C 12,9 km/h (3 Bft)
15.12.2018 00:43 21,5 C -3,3 C 31 % 82 % 1021,2 hPa 0,0 mm 4,8 km/h (1 Bft) S-SO 157 -5,9 C -5,2 C 6,4 km/h (2 Bft)
14.12.2018 23:47 21,5 C -3,2 C 32 % 82 % 1021,0 hPa 0,0 mm 6,4 km/h (2 Bft) O 90 -5,8 C -5,9 C 11,3 km/h (2 Bft)
14.12.2018 22:51 21,6 C -3,2 C 32 % 82 % 1020,8 hPa 0,0 mm 9,7 km/h (2 Bft) O 90 -5,8 C -7,0 C 12,9 km/h (3 Bft)
14.12.2018 21:55 21,6 C -3,0 C 32 % 83 % 1021,2 hPa 0,0 mm 3,2 km/h (1 Bft) SO 135 -5,5 C -3,0 C 6,4 km/h (2 Bft)
14.12.2018 20:59 21,6 C -3,0 C 31 % 83 % 1021,4 hPa 0,0 mm 1,6 km/h (1 Bft) SO 135 -5,5 C -3,0 C 3,2 km/h (1 Bft)
14.12.2018 20:03 21,8 C -3,0 C 31 % 82 % 1021,0 hPa 0,0 mm 4,8 km/h (1 Bft) O 90 -5,6 C -4,9 C 9,7 km/h (2 Bft)
14.12.2018 19:07 21,4 C -2,9 C 31 % 82 % 1020,7 hPa 0,0 mm 4,8 km/h (1 Bft) SO 135 -5,5 C -4,8 C 6,4 km/h (2 Bft)
14.12.2018 18:11 20,9 C -2,9 C 30 % 83 % 1020,4 hPa 0,0 mm 4,8 km/h (1 Bft) SO 135 -5,4 C -4,8 C 6,4 km/h (2 Bft)
14.12.2018 17:15 21,3 C -2,9 C 29 % 83 % 1019,9 hPa 0,0 mm 3,2 km/h (1 Bft) O 90 -5,4 C -2,9 C 4,8 km/h (1 Bft)
14.12.2018 16:19 21,4 C -2,9 C 29 % 83 % 1019,5 hPa 0,0 mm 4,8 km/h (1 Bft) O-NO 67 -5,4 C -4,8 C 11,3 km/h (2 Bft)
14.12.2018 15:23 21,5 C -2,8 C 28 % 83 % 1018,9 hPa 0,0 mm 3,2 km/h (1 Bft) O 90 -5,3 C -2,8 C 8,0 km/h (2 Bft)
14.12.2018 14:27 21,4 C -2,8 C 28 % 86 % 1018,2 hPa 0,0 mm 4,8 km/h (1 Bft) O 90 -4,8 C -4,7 C 9,7 km/h (2 Bft)
14.12.2018 14:00 21,8 C -2,8 C 29 % 87 % 1018,0 hPa 0,0 mm 6,4 km/h (2 Bft) O-NO 67 -4,7 C -5,4 C 9,7 km/h (2 Bft)
_ Min-Zeit 11:14 05:12 14:11 23:34 14:00 - 16:41 - - 04:14 09:34 08:24
Minimum _ 20,7 C -3,9 C 26 % 81 % 1018,0 hPa - 0,0 km/h (0 Bft) - - -6,6 C -9,2 C 0,0 km/h (0 Bft)
_ Max-Zeit 20:12 14:14 21:02 14:00 02:51 14:00 09:34 - - 14:00 14:14 11:56
Maximum _ 21,9 C -2,7 C 32 % 87 % 1022,2 hPa 0,0 mm 16,1 km/h
S-SO (3 Bft)
- - -4,7 C -2,7 C 25,7 km/h
S-SO (4 Bft)
Durchschnitt _ 21,3 C -3,3 C 29 % 83 % 1020,7 hPa #0,0 mm 6,2 km/h (2 Bft) SO - -5,8 C -5,5 C 10,0 km/h (2 Bft)